Regional Weather Roundup
Issued by NWS Midland/Odessa, TX

Skip options and go directly to product.
Home | Oldest Version | Previous Version | Current Version | All | Text Only | Save Text | Print | Product List | Glossary Off

Skip product version selection by date and time.   

489
ASUS44 KMAF 292310
RWRMAF
MIDLAND AREA WEATHER ROUNDUP
NATIONAL WEATHER SERVICE MIDLAND TX
600 PM CDT MON AUG 29 2016

...IN SOUTHWEST TEXAS AND SOUTHEAST NEW MEXICO...

CITY           SKY/WX    TMP DP  RH WIND       PRES   REMARKS
ALPINE         CLOUDY    75  60  58 E10G16    30.21S
ANDREWS        DRIZZLE   72  65  79 N6        30.15R
ARTESIA        SUNNY     81  63  54 NE18      30.13F
BIG SPRING     MOSUNNY   85  62  44 E12       30.09S
CARLSBAD       MOSUNNY   83  60  45 E8        30.09F
DRYDEN           N/A     83  68  60 VRB3      30.01S
FORT STOCKTON  RAIN      68  66  93 NE3       30.12R FOG
GUAD PASS      CLOUDY    75  56  51 E21       30.22F
HOBBS          LGT RAIN  66  66 100 E15G21    30.18F
MARFA          CLOUDY   N/A N/A N/A MISG      30.18S
MIDLAND AIRPK  CLOUDY    73  66  77 W9        30.11S
MIDLAND INTL   LGT RAIN  71  68  90 W9        30.11S
ODESSA         LGT RAIN  70  67  90 NW6       30.13S FOG
PECOS          PTSUNNY   85  59  40 N7        30.07R
PRESIDIO       NOT AVBL
SEMINOLE       DRIZZLE   67  65  91 CALM      30.17F
SNYDER           N/A     85  62  45 E13       30.08R
WINK           CLOUDY    78  61  55 NE15      30.09R
$$
...OTHER STATIONS IN TEXAS...

CITY           SKY/WX    TMP DP  RH WIND       PRES   REMARKS
ABILENE        MOSUNNY   88  65  46 E15       30.05R
AMARILLO       LGT RAIN  66  62  87 CALM      30.22F
AUSTIN         LGT RAIN  79  74  84 E16G29    29.93R
BROWNSVILLE    SUNNY     92  74  55 NE14G24   29.83R HX 101
CORPUS CHRISTI CLOUDY    84  75  74 E12       29.86R
DALLAS FTW     PTSUNNY   83  72  69 W5        29.98F
DEL RIO        CLOUDY    77  73  87 W7        29.94S
EL PASO        PTSUNNY   85  56  37 E12       30.07F
HOUSTON INT    CLOUDY    81  75  82 N7        29.94R
LUBBOCK        CLOUDY    69  67  93 N15       30.15S
SAN ANGELO     SUNNY     87  62  43 E9        30.02R
SAN ANTONIO    SUNNY     88  69  53 E10       29.93R
WACO           CLOUDY    80  72  76 SE20G31   29.98R THUNDER
WICHITA FALLS  NOT AVBL
$$
...OTHER LOCATIONS IN NEW MEXICO...

CITY           SKY/WX    TMP DP  RH WIND       PRES   REMARKS
ALAMAGORDO     MOSUNNY   84  52  32 N6        30.11F
ALBUQUERQUE    CLOUDY    78  47  33 E25G33    30.22R
CANNON AFB     LGT RAIN  64  64 100 E10       30.25R FOG
CLOVIS         CLOUDY    66  61  82 E7        30.25S
HOLLOMAN AFB   MOSUNNY   83  55  37 S8        30.09F
ROSWELL        PTSUNNY   80  60  50 E14G24    30.16S
RUIDOSO          N/A     64  55  72 SE5       30.37R
SANTA FE       CLOUDY    74  41  30 SE9       30.31R
TRUTH OR CONSE CLOUDY    85  42  22 SE10      30.13S
TUCUMCARI      CLOUDY    74  57  55 E12       30.22S
$$

USA.gov is the U.S. government's official web portal to all federal, state and local government web resources and services.